Location: Schommer Observatory
(40.5200°N, 74.4500°W)
Time: 20:28:06
(UTC-04:00)

Tiangong 1 - Pass Details

Date: 09 October 2017
Orbit: 292 x 319 km, 42.8° (Epoch: 23 October)

Event Time Altitude Azimuth Distance (km) Brightness Sun altitude
Rises 19:08:55 0° 267° (W) 2,043 7.3 -8.9°
Reaches altitude 10° 19:10:56 10° 272° (W) 1,208 5.3 -9.2°
Maximum altitude 19:13:36 55° 352° (N) 379 1.0 -9.7°
Enters shadow 19:15:35 16° 69° (ENE) 932 2.4 -10.1°
